Home   Weather   Amiens   Past weeks
Flag for France

Past Weather in Amiens, Hauts-de-France, France — Yesterday and Last 2 Weeks

Now
52 °F

Low clouds.


Feels Like: 51 °F
Forecast: 62 / 50 °F
Wind: 3 mph from North

Location: Beauvais Airport

Current Time: Oct 22, 2019 at 3:55:59 pm

Latest Report: Oct 22, 2019 at 3:00 pm


Visibility: N/A

Pressure: 30.24 "Hg

Humidity: 94%

Dew Point: 50 °F

Location of AmiensLocation

Past Weather in Amiens — Graph

°F

Amiens Temperature Yesterday

Maximum temperature yesterday: 57 °F (at 2:00 pm)
Minimum temperature yesterday: 50 °F (at 12:00 am)
Average temperature yesterday: 53 °F

High & Low Weather Summary for the Past Weeks

 TemperatureHumidityPressure
High73 °F (Oct 14, 4:30 pm)100% (Oct 8, 1:30 am)30.27 "Hg (Oct 8, 1:30 am)
Low48 °F (Oct 19, 9:00 pm)56% (Oct 10, 5:30 pm)29.62 "Hg (Oct 14, 5:00 pm)
Average56 °F85%29.84 "Hg
* Reported Oct 7 2:00 pm — Oct 22 2:30 pm, Amiens. Weather by CustomWeather, © 2019

Note: Actual official high and low records may vary slightly from our data, if they occured in-between our weather recording intervals... More about our weather records

Advertising

Amiens Weather History for the Previous 24 Hours

Scroll right to see more
 ConditionsComfort  
Time TempWeatherWind HumidityBarometerVisibility
2:30 pm
Tue, Oct 22
52 °FLow clouds.5 mph94%30.24 "HgN/A
2:00 pm52 °FLow clouds.2 mph94%30.24 "Hg6 mi
1:30 pm50 °FLow clouds.3 mph94%30.24 "Hg4 mi
1:00 pm50 °FLow clouds.3 mph100%30.27 "Hg1 mi
12:30 pm50 °FFog.2 mph100%30.27 "Hg1 mi
12:00 pm50 °FFog.2 mph100%30.27 "Hg1 mi
11:30 am50 °FFog.No wind94%30.27 "Hg1 mi
11:00 am48 °FFog.2 mph100%30.27 "Hg1 mi
10:30 am48 °FFog.2 mph100%30.27 "Hg1 mi
10:00 am48 °FFog.No wind100%30.27 "Hg1 mi
9:30 am48 °FFog.2 mph100%30.27 "Hg1 mi
9:00 am48 °FFog.3 mph100%30.24 "Hg1 mi
8:30 am48 °FFog.5 mph94%30.24 "Hg1 mi
8:00 am48 °FFog.No wind100%30.21 "Hg1 mi
7:30 am48 °FFog.2 mph100%30.21 "Hg1 mi
7:00 am50 °FFog.No wind94%30.21 "Hg1 mi
6:30 am50 °FFog.3 mph94%30.21 "Hg1 mi
6:00 am50 °FFog.2 mph94%30.21 "Hg1 mi
5:30 am50 °FFog.2 mph100%30.21 "Hg1 mi
5:00 am50 °FFog.3 mph100%30.21 "Hg3 mi
4:30 am52 °FLow clouds.3 mph94%30.21 "Hg4 mi
4:00 am52 °FLow clouds.3 mph94%30.21 "Hg6 mi
3:30 am52 °FMostly cloudy.3 mph94%30.21 "HgN/A
3:00 am50 °FLow clouds.2 mph94%30.21 "HgN/A
2:30 am52 °FClear.1 mph88%30.18 "Hg10 mi
2:00 am52 °FClear.3 mph94%30.18 "Hg10 mi
1:30 am52 °FClear.2 mph94%30.18 "Hg10 mi
1:00 am52 °FLow clouds.2 mph94%30.18 "HgN/A
12:30 am52 °FClear.1 mph94%30.18 "Hg10 mi
12:00 am52 °FClear.5 mph94%30.18 "Hg10 mi
11:30 pm
Mon, Oct 21
52 °FClear.5 mph94%30.18 "Hg10 mi
11:00 pm54 °FClear.6 mph88%30.18 "Hg10 mi
10:30 pm54 °FClear.5 mph88%30.18 "Hg10 mi
10:00 pm54 °FClear.2 mph88%30.15 "Hg10 mi
9:30 pm54 °FOvercast.3 mph88%30.15 "HgN/A
9:00 pm54 °FOvercast.5 mph94%30.15 "HgN/A
8:30 pm54 °FOvercast.3 mph88%30.15 "HgN/A
8:00 pm54 °FClear.6 mph88%30.15 "Hg10 mi
7:30 pm54 °FPartly cloudy.7 mph88%30.12 "HgN/A
7:00 pm55 °FMostly cloudy.7 mph82%30.12 "HgN/A
6:30 pm55 °FBroken clouds.8 mph82%30.12 "HgN/A
6:00 pm55 °FMostly cloudy.9 mph82%30.09 "HgN/A
5:30 pm57 °FPartly sunny.12 mph77%30.09 "HgN/A
5:00 pm57 °FBroken clouds.14 mph77%30.07 "HgN/A
4:30 pm57 °FCloudy.16 mph77%30.07 "HgN/A
4:00 pm57 °FMostly cloudy.14 mph82%30.07 "HgN/A
3:30 pm57 °FOvercast.13 mph77%30.07 "HgN/A
3:00 pm57 °FMostly cloudy.14 mph82%30.04 "HgN/A
Weather by CustomWeather, © 2019

See weather overview